Content
SEND FEEDBACK

Daily
Averages
Monthly
Summary
United States of America

TRUCKEE, CALIFORNIA


Home > North America > United States > California
Elevation: 5966 feet     Latitude: 39 20N     Longitude: 120 11W

WEATHER
 
SELECT A DAY
Number of Records: 282,323;   Date Range: 1/1/95 - 7/29/14
 
SHARE

PRINT THIS DATA

[ ← Previous Day ]
WEATHER ALMANAC - JULY 11, 2013
[ Next Day → ]
[ °C ]   °F
Weather ElementAverageHighLow
Temperature58.6 °F77 °F (12:45 pm)44.6 °F (6:45 am)
Dewpoint31.1 °F39.2 °F (7:45 am)21.2 °F (5:55 pm)
Humidity40.9 %71 % (5:35 am)14 % (5:45 pm)
Barometer30.16 in30.20 in (12:35 am)30.13 in (4:45 pm)
Wind Speed5.3 mph20.7 mph (12:45 pm)
Wind Gust31.1 mph (12:45 pm)
Weather ElementAverage
Visibility10.2 mi
Wind DirectionESE (117.8 °)

Weather ElementTotal
Precipitation---
Heating Degree Days4.2 (Base 65)
Growing Degree Days10.8 (Base 50)
Averaged from 50 records on July 11, 2013
WEATHER CONDITIONS BREAKOUT
WIND DIRECTION BREAKOUT
WEATHER BY HOUR - JULY 11, 2013
[ °C ]   °F
Local TimeTemperatureDewpointHumidityBarometerVisibilityWind DirectionWind SpeedGust SpeedPrecipitationEventsConditions
12:35 AM55.4 °F37.4 °F51 %30.20 in10.0 miCalmClear
12:55 AM53.6 °F35.6 °F51 %30.19 in10.0 miCalmClear
1:15 AM53.6 °F35.6 °F51 %30.19 in10.0 miCalmPartly Cloudy
1:35 AM53.6 °F35.6 °F51 %30.19 in10.0 miCalmPartly Cloudy
1:55 AM53.6 °F37.4 °F54 %30.19 in10.0 miCalmClear
2:15 AM53.6 °F35.6 °F51 %30.18 in10.0 miCalmClear
2:35 AM50.0 °F35.6 °F58 %30.19 in10.0 miCalmClear
2:55 AM50.0 °F37.4 °F62 %30.18 in10.0 miCalmPartly Cloudy
3:15 AM50.0 °F35.6 °F58 %30.18 in10.0 miCalmPartly Cloudy
3:35 AM48.2 °F35.6 °F62 %30.18 in10.0 miCalmClear
3:55 AM48.2 °F35.6 °F62 %30.18 in10.0 miSSE (150°)3.5 mphPartly Cloudy
4:15 AM48.2 °F35.6 °F62 %30.18 in10.0 miCalmScattered Clouds
4:35 AM50.0 °F35.6 °F58 %30.18 in10.0 miCalmMostly Cloudy
4:55 AM48.2 °F35.6 °F62 %30.18 in10.0 miCalmScattered Clouds
5:15 AM48.2 °F37.4 °F66 %30.19 in10.0 miCalmPartly Cloudy
5:35 AM46.4 °F37.4 °F71 %30.19 in10.0 miCalmClear
5:55 AM46.4 °F37.4 °F71 %30.19 in10.0 miCalmPartly Cloudy
6:15 AM46.4 °F37.4 °F71 %30.18 in10.0 miWSW (240°)3.5 mphPartly Cloudy
6:35 AM46.4 °F37.4 °F71 %30.18 in10.0 miCalmPartly Cloudy
6:45 AM44.6 °F35.6 °F71 %30.18 in10.0 miCalmScattered Clouds
7:45 AM50.0 °F39.2 °F66 %30.18 in10.0 miCalmScattered Clouds
8:45 AM59.0 °F39.2 °F48 %30.17 in10.0 miNorth (10°)3.5 mphScattered Clouds
9:45 AM71.6 °F37.4 °F29 %30.15 in10.0 miSW (220°)9.2 mphScattered Clouds
10:45 AM75.2 °F33.8 °F22 %30.16 in10.0 miSSW (200°)13.8 mph23.0 mphScattered Clouds
11:55 AM75.2 °F32.0 °F21 %30.16 in10.0 miSW (220°)17.3 mph27.6 mphPartly Cloudy
12:45 PM77.0 °F26.6 °F16 %30.16 in10.0 miSW (220°)20.7 mph31.1 mphPartly Cloudy
1:45 PM77.0 °F28.4 °F17 %30.16 in10.0 miSW (220°)15.0 mph21.9 mphPartly Cloudy
2:45 PM77.0 °F30.2 °F18 %30.15 in10.0 miWSW (240°)17.3 mph24.2 mphClear
3:45 PM77.0 °F32.0 °F19 %30.14 in19.0 miSW (230°)16.1 mph25.3 mphClear
4:45 PM75.2 °F26.6 °F17 %30.13 in10.0 miWest (270°)13.8 mph24.2 mphClear
5:45 PM75.2 °F23.0 °F14 %30.13 in10.0 miWest (260°)17.3 mph23.0 mphClear
5:55 PM73.4 °F21.2 °F14 %30.13 in10.0 miWest (260°)18.4 mph23.0 mphClear
6:15 PM73.4 °F24.8 °F16 %30.13 in10.0 miWest (260°)10.4 mph20.7 mphClear
6:35 PM73.4 °F23.0 °F15 %30.13 in10.0 miWSW (240°)15.0 mph19.6 mphClear
6:55 PM71.6 °F23.0 °F16 %30.13 in10.0 miSW (230°)8.1 mph19.6 mphClear
7:15 PM71.6 °F24.8 °F17 %30.13 in10.0 miWest (260°)12.7 mph19.6 mphClear
7:35 PM69.8 °F24.8 °F18 %30.14 in10.0 miSW (230°)5.8 mphClear
7:55 PM68.0 °F24.8 °F20 %30.14 in10.0 miSouth (170°)3.5 mphClear
8:15 PM64.4 °F24.8 °F22 %30.14 in10.0 miWSW (240°)5.8 mphClear
8:35 PM64.4 °F24.8 °F22 %30.14 in10.0 miCalmClear
8:55 PM62.6 °F24.8 °F24 %30.15 in10.0 miSW (230°)3.5 mphClear
9:15 PM55.4 °F26.6 °F33 %30.15 in10.0 miCalmClear
9:35 PM53.6 °F26.6 °F35 %30.16 in10.0 miSSW (210°)4.6 mphClear
9:55 PM53.6 °F26.6 °F35 %30.16 in10.0 miSW (230°)4.6 mphClear
10:15 PM50.0 °F26.6 °F40 %30.17 in10.0 miNNE (20°)3.5 mphClear
10:35 PM51.8 °F26.6 °F38 %30.17 in10.0 miNW (320°)3.5 mphClear
10:55 PM50.0 °F26.6 °F40 %30.17 in10.0 miSSE (160°)3.5 mphClear
11:15 PM46.4 °F26.6 °F46 %30.17 in10.0 miNE (40°)4.6 mphClear
11:35 PM48.2 °F26.6 °F43 %30.17 in10.0 miWSW (250°)4.6 mphClear
11:55 PM44.6 °F26.6 °F49 %30.17 in10.0 miENE (60°)3.5 mphClear
Hourly data recorded from KTRK, located miles away from Truckee, California







STORIES FROM OUR PARTNERS